Regional Weather Roundup
Issued by NWS Sioux Falls, SD

Home | Current Version | Previous Version | Graphics & Text | Print | Product List | Glossary On
Versions: 1 2 3 4 5 6 7 8 9 10 11 12 13 14 15 16 17 18 19 20 21 22 23 24 25 26 27 28 29 30 31 32 33 34 35 36 37 38 39 40 41 42 43 44 45 46 47 48 49 50
000
ASUS43 KFSD 192110
RWRFSD

WEATHER ROUNDUP FOR SE SOUTH DAKOTA/SW MINNESOTA/NW IOWA
NATIONAL WEATHER SERVICE SIOUX FALLS SD
300 PM CST FRI DEC 19 2014

NOTE: "FAIR" INDICATES FEW OR NO CLOUDS BELOW 12,000 FEET WITH NO
SIGNIFICANT WEATHER AND OR OBSTRUCTIONS TO VISIBILITY.


SDZ038>040-050-052>070-192200-
SOUTHEAST SOUTH DAKOTA

CITY           SKY/WX    TMP DP  RH WIND       PRES   REMARKS
CHAMBERLAIN    CLOUDY    27  22  81 SE6       29.98F WCI  21
HURON          CLOUDY    30  28  92 S13       30.02F FOG     WCI  20
MADISON        CLOUDY    27  27 100 S14       30.04F FOG     WCI  15
MITCHELL       CLOUDY    31  29  92 S15       30.04F FOG     WCI  20
SIOUX FALLS    CLOUDY    30  28  92 S16       30.08F WCI  19
WINNER         FAIR      38  25  59 CALM      29.96F
YANKTON        CLOUDY    30  28  93 S10G16    30.09F WCI  21
$$

MNZ071-072-080-081-089-090-097-098-192200-
SOUTHWEST MINNESOTA

CITY           SKY/WX    TMP DP  RH WIND       PRES   REMARKS
FAIRMONT       CLOUDY    32  25  74 S13       30.14F WCI  22
JACKSON        CLOUDY    32  28  86 S13       30.12S WCI  22
LUVERNE        CLOUDY    32  30  93 S15       30.10S FOG     WCI  22
MARSHALL       CLOUDY    30  27  86 S12       30.08F WCI  21
MONTEVIDEO     CLOUDY    30  30 100 SW14      30.09F FOG     WCI  20
PIPESTONE      CLOUDY    30  28  93 SW6       30.06S FOG     WCI  24
REDWOOD FALLS  CLOUDY    33  29  85 S13       30.11F FOG     WCI  24
TRACY          CLOUDY    32  29  90 S9        30.09S FOG     WCI  24
WINDOM         CLOUDY    32  28  86 S12G20    30.11S WCI  23
WORTHINGTON    CLOUDY    30  27  86 S17       30.10F WCI  18
$$

IAZ001>003-012>014-020>022-031-032-NEZ013-014-SDZ071-192200-
NORTHWEST IOWA

CITY           SKY/WX    TMP DP  RH WIND       PRES   REMARKS
CHEROKEE       CLOUDY    33  29  86 S12       30.14S WCI  24
DENISON        CLOUDY    32  30  93 S10       30.14S FOG     WCI  24
ESTHERVILLE    CLOUDY    32  28  85 S15       30.13F FOG     WCI  22
LE MARS        CLOUDY    34  28  80 S15       30.12S WCI  24
ORANGE CITY    CLOUDY    34  27  75 S13       30.11S HAZE    WCI  25
SHELDON        CLOUDY    32  30  93 S15G23    30.10S WCI  22
SIOUX CITY     CLOUDY    35  28  75 S15       30.14S WCI  25
SPENCER        CLOUDY    34  27  75 S12       30.13F WCI  25
STORM LAKE     CLOUDY    32  30  93 S12       30.14S FOG     WCI  23
$$

ABBREVIATIONS USED IN REMARKS
   TC - TEMPERATURE IN CELSIUS
  WCI - WIND CHILL INDEX
   HX - HEAT INDEX
  VSB - VISIBILITY




USA.gov is the U.S. government's official web portal to all federal, state and local government web resources and services.